[[{"header":{"parameterUnit":"m.s-1","parameterCategory":1,"la1":30.2991,"la2":30.254,"lo1":-89.0895,"lo2":-89.0444,"dy":0.0017,"dx":0.0017,"nx":28,"ny":28,"refTime":"2025-03-28T21:00:00:Z","depth":0,"parameterNumber":2,"parameterNumberName":"U-component_of_WINDS"},"data":[0,0,0,0,0,0,0,0,0,0,0,0,0,0,0,0,0,0,0,0,0,0,0,0,0,0,0,0,0,0,0,0,0,0,0,0,0,0,0,0,0,0,0,0,0,0,0,0,0,0,0,0,0,0,0,0,0,0,-3.2791,-3.2792,0,-3.2887,-3.2888,-3.2889,-3.2909,-3.2908,-3.2907,-3.2907,-3.3002,-3.3005,-3.3008,0,0,0,0,0,0,0,0,0,0,0,0,0,-3.2621,-3.2624,-3.2791,-3.2792,-3.2793,-3.2887,-3.2888,-3.289,-3.2909,-3.2908,-3.2907,-3.2906,-3.3001,-3.3005,-3.3009,0,0,0,0,0,0,0,0,0,0,0,0,0,-3.2703,-3.2625,-3.2791,-3.2814,-3.2817,-3.2887,-3.2888,-3.289,-3.2909,-3.2908,-3.2907,-3.2906,-3.3,-3.3004,-3.3009,-3.3061,0,0,-3.3024,-3.3026,0,0,0,0,0,0,0,0,-3.2699,-3.271,-3.281,-3.2813,-3.2816,-3.2885,-3.2863,-3.2947,-3.2909,-3.2874,-3.2907,-3.2905,-3.2964,-3.2971,-3.2992,-3.3065,-3.3069,-3.3024,-3.3027,-3.3029,-3.3031,0,0,0,0,0,0,0,-3.2693,-3.2706,-3.2829,-3.2811,-3.2815,-3.2819,-3.283,-3.2879,-3.2924,-3.2877,-3.2879,-3.289,-3.2965,-3.2987,-3.2994,-3.3071,-3.3024,-3.3029,-3.3031,-3.3033,-3.319,-3.3191,0,0,0,0,0,0,-3.2683,-3.2701,-3.2826,-3.2832,-3.2754,-3.2823,-3.2835,-3.2864,-3.2923,-3.2931,-3.2891,-3.2891,-3.2979,-3.2989,-3.2998,-3.3061,-3.3029,-3.3034,-3.3037,-3.3189,-3.319,-3.3192,0,0,0,0,0,0,-3.268,-3.2694,-3.2822,-3.2767,-3.2783,-3.2827,-3.286,-3.2866,-3.2888,-3.2934,-3.2942,-3.2905,-3.2979,-3.2991,-3.3045,-3.3065,-3.3036,-3.304,-3.3187,-3.3189,-3.3191,-3.3189,0,0,0,0,0,0,-3.2675,-3.2693,-3.2714,-3.2767,-3.2786,-3.2869,-3.2861,-3.2869,-3.2897,-3.2897,-3.2949,-3.2957,-3.2979,-3.3038,-3.305,-3.3071,-3.3044,-3.3186,-3.3188,-3.3191,-3.3187,-3.319,-3.3193,0,0,0,0,0,-3.2669,-3.2709,-3.2715,-3.273,-3.2813,-3.287,-3.288,-3.2906,-3.2898,-3.2919,-3.2948,-3.2955,-3.3061,-3.3043,-3.3057,-3.308,-3.3185,-3.3188,-3.319,-3.3186,-3.319,-3.3193,0,0,0,0,0,0,-3.2656,-3.2716,-3.2723,-3.2782,-3.2821,-3.2873,-3.29,-3.291,-3.295,-3.2949,-3.2978,-3.299,-3.3042,-3.3066,-3.3045,-3.3132,-3.3122,-3.3128,-3.3114,-3.3118,-3.3121,-3.3113,-3.3048,0,0,0,0,0,-3.266,-3.2702,-3.2752,-3.2799,-3.2818,-3.2856,-3.2881,-3.2898,-3.2938,-3.2954,-3.2987,-3.3026,-3.3067,-3.3094,-3.3135,-3.3191,-3.3202,-3.3214,-3.3216,-3.3219,-3.3223,-3.3253,-3.3259,-3.3201,-3.3201,-3.3201,0,0,-3.2668,-3.2707,-3.2731,-3.2797,-3.2829,-3.287,-3.2869,-3.2913,-3.2944,-3.2961,-3.3014,-3.3039,-3.3084,-3.3139,-3.3165,-3.3161,-3.3241,-3.3222,-3.3224,-3.3227,-3.3257,-3.3262,-3.3267,-3.3203,-3.3203,-3.3202,0,0,-3.2705,-3.2739,-3.2781,-3.2813,-3.2862,-3.2887,-3.2897,-3.2948,-3.2966,-3.302,-3.3033,-3.3069,-3.3141,-3.3172,-3.3197,-3.3245,-3.3253,-3.3258,-3.3272,-3.3302,-3.3306,-3.331,-3.3326,-3.3332,-3.3262,-3.3262,-3.3262,0,-3.2709,-3.2773,-3.2802,-3.2845,-3.2873,-3.2892,-3.2934,-3.2964,-3.3022,-3.3041,-3.3036,-3.3126,-3.3158,-3.322,-3.3231,-3.3252,-3.3263,-3.3252,-3.3303,-3.3308,-3.3312,-3.3328,-3.3334,-3.3263,-3.3262,-3.3262,-3.3262,0,-3.2776,-3.282,-3.2848,-3.2906,-3.2937,-3.298,-3.3013,-3.3042,-3.3055,-3.308,-3.3134,-3.3173,-3.3221,-3.3238,-3.3251,-3.3301,-3.3297,-3.3298,-3.3288,-3.3317,-3.3332,-3.3339,-3.3263,-3.3263,-3.3263,-3.3263,0,0,-3.2806,-3.2879,-3.2889,-3.2915,-3.2969,-3.3004,-3.3047,-3.3095,-3.3118,-3.3158,-3.3194,-3.3255,-3.3255,-3.3284,-3.3301,-3.3327,-3.3361,-3.3324,-3.3326,-3.3329,-3.3417,-3.3416,-3.3423,-3.3367,-3.3368,-3.3369,-3.3413,0,-3.2849,-3.2928,-3.2954,-3.3019,-3.3059,-3.3077,-3.3114,-3.3151,-3.3176,-3.3213,-3.3239,-3.3281,-3.3279,-3.3297,-3.3323,-3.3352,-3.3379,-3.3349,-3.3399,-3.3401,-3.3387,-3.3431,-3.343,-3.3469,-3.342,-3.3421,-3.3421,0,-3.2909,-3.2951,-3.3019,-3.3069,-3.3087,-3.312,-3.3166,-3.3202,-3.3244,-3.326,-3.3291,-3.3307,-3.3351,-3.334,-3.3401,-3.338,-3.3402,-3.3419,-3.3421,-3.3426,-3.3412,-3.3435,-3.3483,-3.3488,-3.3431,-3.343,-3.343,0,-3.2923,-3.2996,-3.3047,-3.3069,-3.3128,-3.315,-3.3176,-3.3217,-3.3244,-3.3284,-3.3302,-3.3347,-3.3371,-3.3404,-3.3431,-3.342,-3.3489,-3.348,-3.3502,-3.3501,-3.3515,-3.3513,-3.3565,-3.3531,-3.3531,-3.3531,-3.3531,0,-3.2967,-3.3008,-3.3054,-3.3085,-3.3131,-3.3161,-3.3205,-3.3232,-3.3268,-3.3303,-3.3322,-3.3354,-3.3388,-3.3425,-3.3446,-3.3492,-3.3503,-3.3516,-3.3521,-3.3514,-3.3512,-3.3528,-3.3526,-3.3533,-3.3532,-3.3532,-3.3532,0,-3.2991,-3.3023,-3.3079,-3.313,-3.3144,-3.3176,-3.3219,-3.3249,-3.3274,-3.3319,-3.3331,-3.337,-3.3414,-3.3445,-3.3501,-3.3515,-3.3565,-3.357,-3.3551,-3.3553,-3.3573,-3.3571,-3.3636,-3.3646,-3.3606,-3.3606,-3.3607,0,-3.3016,-3.3048,-3.3103,-3.3129,-3.3154,-3.3195,-3.3223,-3.3254,-3.3282,-3.3332,-3.3355,-3.3401,-3.3439,-3.3508,-3.3541,-3.3584,-3.359,-3.361,-3.3596,-3.3588,-3.3588,-3.3586,-3.3589,-3.3611,-3.3611,-3.3612,-3.3612,0,-3.3058,-3.3072,-3.3113,-3.3159,-3.3192,-3.3229,-3.3266,-3.3286,-3.3322,-3.3353,-3.3399,-3.3428,-3.3486,-3.3531,-3.3577,-3.3602,-3.3612,-3.3616,-3.3623,-3.3616,-3.3603,-3.3609,-3.3556,-3.3614,-3.3614,-3.3614,-3.3614,-3.3614,-3.3083,-3.3112,-3.3155,-3.3199,-3.323,-3.3265,-3.3295,-3.3324,-3.3363,-3.3413,-3.3429,-3.3476,-3.3516,-3.3579,-3.3605,-3.3641,-3.364,-3.365,-3.3653,-3.3655,-3.3654,-3.3598,-3.365,-3.365,-3.365,-3.365,-3.365,0,-3.3125,-3.3153,-3.3193,-3.3245,-3.328,-3.3288,-3.333,-3.3357,-3.3399,-3.3436,-3.3473,-3.3525,-3.3568,-3.3605,-3.3649,-3.3671,-3.3677,-3.3682,-3.368,-3.3685,-3.3654,-3.3642,-3.3676,-3.3676,-3.3676,-3.3676,-3.3676,-3.3676,-3.315,-3.32,-3.3219,-3.3284,-3.3312,-3.3359,-3.3382,-3.3413,-3.3443,-3.35,-3.3536,-3.356,-3.3596,-3.3643,-3.3683,-3.3692,-3.3707,-3.3711,-3.3721,-3.3691,-3.3687,-3.3685,-3.3674,-3.3714,-3.3714,-3.3749,-3.375,-3.375]},{"header":{"parameterUnit":"m.s-1","parameterCategory":1,"la1":30.2991,"la2":30.254,"lo1":-89.0895,"lo2":-89.0444,"dy":0.0017,"dx":0.0017,"nx":28,"ny":28,"refTime":"2025-03-28T21:00:00:Z","depth":0,"parameterNumber":3,"parameterNumberName":"V-component_of_WINDS"},"data":[0,0,0,0,0,0,0,0,0,0,0,0,0,0,0,0,0,0,0,0,0,0,0,0,0,0,0,0,0,0,0,0,0,0,0,0,0,0,0,0,0,0,0,0,0,0,0,0,0,0,0,0,0,0,0,0,0,0,6.5938,6.5939,0,6.6055,6.6056,6.6058,6.6044,6.6042,6.6041,6.6039,6.6153,6.6158,6.6163,0,0,0,0,0,0,0,0,0,0,0,0,0,6.5698,6.5703,6.5938,6.5939,6.5941,6.6055,6.6056,6.6058,6.6045,6.6042,6.604,6.6038,6.6152,6.6157,6.6163,0,0,0,0,0,0,0,0,0,0,0,0,0,6.5807,6.5704,6.5937,6.5948,6.595,6.6054,6.6056,6.6058,6.6045,6.6042,6.604,6.6037,6.615,6.6157,6.6164,6.6263,0,0,6.6186,6.6189,0,0,0,0,0,0,0,0,6.5801,6.5816,6.5945,6.5947,6.595,6.6032,6.6014,6.6127,6.6046,6.6009,6.6039,6.6036,6.6115,6.6125,6.6153,6.6269,6.6274,6.6186,6.6191,6.6194,6.6196,0,0,0,0,0,0,0,6.5794,6.5811,6.5984,6.5947,6.595,6.5945,6.5958,6.6035,6.6076,6.6012,6.6011,6.6026,6.6116,6.6146,6.6155,6.6275,6.6186,6.6192,6.6197,6.62,6.6481,6.6484,0,0,0,0,0,0,6.5784,6.5805,6.598,6.5987,6.5867,6.5952,6.5966,6.6009,6.6075,6.6083,6.6028,6.6024,6.6135,6.6147,6.6159,6.6281,6.6194,6.62,6.6204,6.6477,6.6481,6.6485,0,0,0,0,0,0,6.5779,6.58,6.5975,6.5896,6.5918,6.5959,6.6007,6.6012,6.6042,6.6087,6.6094,6.6051,6.6133,6.6149,6.6238,6.6285,6.6204,6.621,6.6474,6.6479,6.6483,6.6526,0,0,0,0,0,0,6.5772,6.5798,6.5837,6.5897,6.5922,6.6054,6.601,6.6017,6.6056,6.6052,6.6111,6.6118,6.6132,6.6228,6.6245,6.6293,6.6216,6.647,6.6476,6.6481,6.652,6.6531,6.6541,0,0,0,0,0,6.5764,6.5843,6.584,6.5861,6.5973,6.6057,6.6071,6.6088,6.6059,6.6099,6.6128,6.6116,6.6277,6.6237,6.6257,6.6308,6.6467,6.6474,6.6481,6.6516,6.6529,6.6541,0,0,0,0,0,0,6.5786,6.5851,6.5848,6.5949,6.5998,6.6055,6.6105,6.6101,6.6157,6.6152,6.6168,6.6181,6.6271,6.6298,6.6252,6.6408,6.6368,6.6379,6.6388,6.6401,6.6411,6.6402,6.6222,0,0,0,0,0,6.5803,6.5868,6.592,6.6005,6.603,6.6063,6.61,6.6109,6.6159,6.6179,6.6214,6.6262,6.6324,6.6363,6.6422,6.6524,6.6537,6.6569,6.6579,6.6587,6.6597,6.6654,6.6669,6.6508,6.6508,6.6508,0,0,6.5838,6.5882,6.5921,6.6011,6.6049,6.6115,6.608,6.6151,6.6199,6.6189,6.6277,6.6304,6.6358,6.6455,6.6499,6.648,6.6644,6.6596,6.6603,6.6608,6.6663,6.6678,6.6691,6.6513,6.6512,6.6511,0,0,6.5936,6.5975,6.6051,6.6091,6.6151,6.6173,6.6191,6.6249,6.6268,6.6356,6.635,6.6407,6.6512,6.6552,6.6586,6.67,6.6692,6.6719,6.6772,6.6827,6.684,6.6851,6.6893,6.6908,6.6728,6.6728,6.6728,0,6.5971,6.6072,6.6089,6.6162,6.6201,6.6198,6.6274,6.6311,6.6386,6.6413,6.6391,6.6525,6.656,6.6667,6.6695,6.6722,6.6743,6.6712,6.6837,6.6849,6.6859,6.6899,6.6915,6.6731,6.6731,6.6731,6.673,0,6.6113,6.6182,6.6236,6.6312,6.6357,6.643,6.6459,6.6502,6.6507,6.6531,6.6621,6.6665,6.6733,6.6758,6.6763,6.6866,6.6852,6.6834,6.6793,6.6877,6.6915,6.693,6.6735,6.6734,6.6733,6.6733,0,0,6.6227,6.6313,6.6333,6.6368,6.6434,6.6487,6.6561,6.663,6.6667,6.6719,6.6781,6.6871,6.6855,6.6893,6.6902,6.695,6.7039,6.6925,6.6927,6.6946,6.7156,6.717,6.7187,6.7034,6.7037,6.7039,6.7152,0,6.6332,6.6464,6.6483,6.6599,6.6664,6.6662,6.6726,6.6773,6.6797,6.6854,6.688,6.6945,6.6918,6.6941,6.6989,6.7018,6.7082,6.701,6.7091,6.7094,6.7078,6.7207,6.7222,6.7326,6.7166,6.7169,6.7171,0,6.6472,6.6531,6.6655,6.6714,6.6741,6.6799,6.6864,6.6919,6.6972,6.6987,6.7031,6.7034,6.7109,6.7066,6.7169,6.712,6.7154,6.7173,6.7178,6.7186,6.7137,6.7219,6.7359,6.7375,6.7194,6.7192,6.719,0,6.6545,6.6654,6.6743,6.6772,6.6843,6.6884,6.6915,6.6965,6.7006,6.7063,6.7089,6.7153,6.7188,6.7236,6.7256,6.7223,6.7359,6.7317,6.7372,6.7372,6.7401,6.7399,6.7549,6.7422,6.7422,6.7422,6.7421,0,6.666,6.6736,6.6776,6.6831,6.6915,6.6936,6.7018,6.7048,6.7093,6.7152,6.7153,6.7208,6.7232,6.729,6.7306,6.739,6.7405,6.7418,6.7421,6.7419,6.7417,6.7441,6.7435,6.7426,6.7425,6.7424,6.7423,0,6.6755,6.6786,6.6882,6.6942,6.6959,6.7019,6.7069,6.7121,6.7146,6.7221,6.7239,6.7277,6.7346,6.7372,6.7455,6.7465,6.7563,6.7559,6.7545,6.7546,6.7601,6.7595,6.7771,6.7796,6.7653,6.7654,6.7655,0,6.6828,6.6886,6.6953,6.6994,6.7028,6.7093,6.7135,6.7157,6.7201,6.7267,6.7311,6.7381,6.7437,6.7548,6.7582,6.7645,6.7644,6.7702,6.7654,6.7649,6.7646,6.7643,6.7649,6.771,6.7712,6.7713,6.7714,0,6.6953,6.6965,6.7027,6.7095,6.7147,6.72,6.7252,6.7285,6.7315,6.7364,6.7436,6.748,6.7567,6.7635,6.7701,6.7731,6.7728,6.7729,6.7745,6.7743,6.7733,6.774,6.757,6.7725,6.7724,6.7723,6.7722,6.7722,6.7039,6.7092,6.7148,6.7217,6.7259,6.7309,6.7361,6.7393,6.7454,6.7528,6.7537,6.7614,6.7666,6.7755,6.7788,6.7848,6.7832,6.7856,6.7862,6.7867,6.7872,6.7723,6.786,6.786,6.7859,6.7859,6.7859,0,6.7165,6.7202,6.7266,6.734,6.7394,6.7388,6.7446,6.7491,6.756,6.761,6.7667,6.775,6.7817,6.7857,6.7924,6.7964,6.7964,6.7981,6.7978,6.7986,6.7882,6.7861,6.798,6.798,6.798,6.798,6.798,6.798,6.7238,6.7327,6.7346,6.7456,6.7491,6.7569,6.7602,6.7647,6.7688,6.7781,6.7838,6.7864,6.791,6.798,6.8041,6.8051,6.8076,6.8095,6.8103,6.8005,6.7993,6.7981,6.7962,6.81,6.81,6.8202,6.8203,6.8204]}]]